Regional Weather Roundup
Issued by NWS

Home | Current Version | Previous Version | Text Only | Print | Product List | Glossary Off
Versions: 1 2 3 4 5 6 7 8 9 10 11 12 13 14 15 16 17 18 19 20 21 22 23 24 25 26 27 28 29 30 31 32 33 34 35 36 37 38 39 40 41 42 43 44 45 46 47 48 49 50

000
ASUS43 KDMX 281607
RWRIA

WEATHER ROUNDUP FOR IOWA
NATIONAL WEATHER SERVICE DES MOINES IA
1100 AM CDT FRI AUG 28 2015

NOTE: "FAIR" INDICATES FEW OR NO CLOUDS BELOW 12,000 FEET WITH NO
SIGNIFICANT WEATHER AND/OR OBSTRUCTIONS TO VISIBILITY.

* - THESE STATIONS ARE NOT NWS STATIONS...THUS NOT UNDER NWS
QUALITY CONTROL.  THEY ALSO DO NOT REPORT WEATHER SUCH
AS PRECIPITATION OR FOG.

IAZ001>003-012>014-020>022-031>034-043>046-281700-
   NORTHWEST IOWA

CITY           SKY/WX    TMP DP  RH WIND       PRES   REMARKS
CARROLL *      PTSUNNY   64  64 100 S13       29.86R FOG
CHEROKEE *     DRIZZLE   64  64 100 E10       29.86S
DENISON *      CLOUDY    66  66 100 S12G18    29.83R FOG
LE MARS *      CLOUDY    66  64  94 NE9G16    29.87R
ORANGE CITY *  CLOUDY    64  64 100 E9        29.88R
SHELDON *      PTSUNNY   64  64 100 E15G23    29.89R FOG
SIOUX CITY     CLOUDY    67  63  87 NE6       29.84R FOG
SPENCER        LGT RAIN  64  61  90 E18G26    29.91R FOG
STORM LAKE *   LGT RAIN  64  64 100 E8        29.87S
$$

IAZ055>058-069>071-079>083-090>094-281700-
   SOUTHWEST IOWA

CITY           SKY/WX    TMP DP  RH WIND       PRES   REMARKS
ATLANTIC *     CLOUDY    70  66  88 S14       29.86S
AUDUBON *      PTSUNNY   66  63  88 S13G20    29.87F
CLARINDA *     PTSUNNY   73  68  83 S13       29.91R
COUNCIL BLFS * CLOUDY    72  68  88 SW9       29.84S
CRESTON *      CLOUDY    68  64  88 S17G23    29.92F
HARLAN  *      CLOUDY    70 -38   1 S10       29.88S
LAMONI         CLOUDY    69  64  84 S12G21    29.95F
RED OAK *      MOSUNNY   73  70  88 S17       29.86S
SHENANDOAH *   MOSUNNY   75  70  83 S14G21    29.87S
$$

IAZ047>049-059>061-072>074-084-281700-
   CENTRAL IOWA

CITY           SKY/WX    TMP DP  RH WIND       PRES   REMARKS
AMES           HVY RAIN  63  63 100 SE15G26   29.92F VSB 1
ANKENY *       CLOUDY    64  63  94 SE14G22   29.93F
CHARITON *     SUNNY     66  63  88 SE15G22   29.96F
DES MOINES     CLOUDY    65  61  87 SE14G23   29.93R
GRINNELL*      CLOUDY    61  59  94 E16G24    29.99F
KNOXVILLE *    MOSUNNY   64  61  88 SE15G24   29.96S
MARSHALLTOWN   LGT RAIN  62  60  93 E22G29    29.95F
PELLA *        CLOUDY    63  63 100 SE12      29.99S
PERRY *        CLOUDY    64  64 100 SE15G22   29.89F
$$

IAZ004>006-015-016-023>025-035-036-281700-
   NORTH CENTRAL IOWA

CITY           SKY/WX    TMP DP  RH WIND       PRES   REMARKS
ALGONA *       DRIZZLE   63  63 100 SE7G16    29.96R
CLARION *      LGT RAIN  59  57  94 SE20G29   29.94R
ESTHERVILLE    RAIN      63  62  97 E15G23    29.95S FOG
FORT DODGE *   CLOUDY    63  59  88 SE17G23   29.91S
MASON CITY     HVY RAIN  62  61  96 E20G25    29.98S FOG
FOREST CITY *  RAIN      61  61 100 E13G28    29.97R
IOWA FALLS *   RAIN      61  59  94 E16G23    29.96R
$$

IAZ007>011-017>019-026>030-037>042-050>054-066-281700-
   NORTHEAST IOWA

CITY           SKY/WX    TMP DP  RH WIND       PRES   REMARKS
CEDAR RAPIDS   LGT RAIN  63  62  97 SE8       30.06F
CHARLES CITY * RAIN      61  61 100 E17G24    29.99F
CLINTON *      CLOUDY    64  59  82 SE9       30.13S
DECORAH *      LGT RAIN  61  61 100 SE5       30.10R
DUBUQUE        CLOUDY    63  59  87 S6        30.11S
MONTICELLO *   MOSUNNY   63  61  94 E6        30.08F
OELWEIN *      LGT RAIN  61  61 100 VRB3G12   30.08S
WATERLOO       RAIN      61  60  97 SE16      30.02F FOG
$$

IAZ064-065-067-068-078-281700-
   EAST CENTRAL IOWA

CITY           SKY/WX    TMP DP  RH WIND       PRES   REMARKS
DAVENPORT      CLOUDY    66  59  78 SE7       30.11R
IOWA CITY      CLOUDY    65  60  84 CALM      30.10R
MT. PLEASANT * CLOUDY    68  59  73 SE6       30.08R
MUSCATINE *    SUNNY     66  59  77 SE6       30.08F
QUAD CITIES    CLOUDY    67  60  78 E3        30.10S
$$

IAZ062-063-075>077-085>089-095>099-281700-
   SOUTHEAST IOWA

CITY           SKY/WX    TMP DP  RH WIND       PRES   REMARKS
BURLINGTON     CLOUDY    67  62  84 SE9       30.08S
FAIRFIELD *    SUNNY     66  61  82 SE10      30.04F
FORT MADISON * SUNNY     66  61  82 SE8       30.08S
KEOKUK *       SUNNY     68  61  77 SE6       30.07R
OSKALOOSA *    PTSUNNY   64  61  88 SE12G17   30.01F
CENTERVILLE *  SUNNY     66  63  88 SE13      30.01S
OTTUMWA        CLOUDY    65  62  90 SE14      30.00F
WASHINGTON *     N/A    N/A N/A N/A MISG        N/A
$$

ABBREVIATIONS USED IN REMARKS
   TC - TEMPERATURES IN CELSIUS
  WCI - WIND CHILL INDEX
   HX - HEAT INDEX
  VSB - VISIBILITY
$$



USA.gov is the U.S. government's official web portal to all federal, state and local government web resources and services.